Hourly Weather Golanka

Today, 7 May, Friday

Time Temperature Precipitation Wind Pressure Humidity
00:00 +7°C° 0 mm 3 mps 734 mmHg 73%
01:00 +8°C° 0 mm 3 mps 734 mmHg 70%
02:00 +8°C° 0.2 mm 3 mps 733 mmHg 75%
03:00 +6°C° 0.2 mm 4 mps 733 mmHg 81%
04:00 +6°C° 0.2 mm 4 mps 733 mmHg 86%
05:00 +7°C° 0 mm 4 mps 733 mmHg 84%
06:00 +9°C° 0 mm 3 mps 733 mmHg 82%
07:00 +9°C° 0 mm 3 mps 733 mmHg 80%
08:00 +10°C° 0 mm 3 mps 733 mmHg 77%
09:00 +11°C° 0 mm 3 mps 733 mmHg 75%
10:00 +12°C° 0 mm 3 mps 733 mmHg 72%
11:00 +12°C° 0.2 mm 4 mps 733 mmHg 70%
12:00 +13°C° 0.2 mm 4 mps 733 mmHg 68%
13:00 +13°C° 0.2 mm 5 mps 733 mmHg 66%
14:00 +13°C° 0.3 mm 5 mps 733 mmHg 70%
15:00 +12°C° 0.3 mm 5 mps 733 mmHg 73%
16:00 +12°C° 0.3 mm 5 mps 734 mmHg 77%
17:00 +9°C° 0.1 mm 6 mps 734 mmHg 79%
18:00 +8°C° 0.1 mm 6 mps 735 mmHg 80%
19:00 +5°C° 0.1 mm 7 mps 736 mmHg 82%
20:00 +4°C° 0 mm 6 mps 737 mmHg 82%
21:00 +3°C° 0 mm 6 mps 738 mmHg 82%
22:00 +3°C° 0 mm 6 mps 738 mmHg 82%
23:00 +2°C° 0 mm 5 mps 739 mmHg 83%

Tomorrow, 8 May, Saturday

Time Temperature Precipitation Wind Pressure Humidity
00:00 +2°C° 0 mm 5 mps 739 mmHg 84%
01:00 +1°C° 0 mm 5 mps 740 mmHg 86%
02:00 +1°C° 0 mm 5 mps 740 mmHg 86%
03:00 +1°C° 0 mm 5 mps 741 mmHg 86%
04:00 0°C° 0 mm 5 mps 741 mmHg 87%
05:00 +1°C° 0 mm 5 mps 742 mmHg 82%
06:00 +2°C° 0 mm 6 mps 742 mmHg 78%
07:00 +3°C° 0 mm 6 mps 743 mmHg 73%
08:00 +4°C° 0 mm 6 mps 743 mmHg 68%
09:00 +6°C° 0 mm 5 mps 743 mmHg 63%
10:00 +7°C° 0 mm 5 mps 744 mmHg 58%
11:00 +8°C° 0 mm 5 mps 743 mmHg 56%
12:00 +9°C° 0 mm 5 mps 743 mmHg 53%
13:00 +10°C° 0 mm 5 mps 743 mmHg 50%
14:00 +10°C° 0 mm 5 mps 743 mmHg 50%
15:00 +11°C° 0 mm 4 mps 743 mmHg 50%
16:00 +11°C° 0 mm 4 mps 743 mmHg 50%
17:00 +10°C° 0 mm 3 mps 743 mmHg 57%
18:00 +8°C° 0 mm 2 mps 744 mmHg 64%
19:00 +6°C° 0 mm 0 mps 744 mmHg 72%
20:00 +7°C° 0 mm 1 mps 744 mmHg 73%
21:00 +6°C° 0 mm 1 mps 745 mmHg 74%
22:00 +4°C° 0 mm 2 mps 745 mmHg 76%
23:00 +4°C° 0 mm 2 mps 745 mmHg 76%

Day after tomorrow, 9 May, Sunday

Time Temperature Precipitation Wind Pressure Humidity
00:00 +4°C° 0 mm 2 mps 745 mmHg 75%
01:00 +4°C° 0 mm 2 mps 745 mmHg 75%
02:00 +4°C° 0 mm 2 mps 745 mmHg 77%
03:00 +3°C° 0 mm 2 mps 745 mmHg 80%
04:00 +3°C° 0 mm 2 mps 745 mmHg 82%
05:00 +4°C° 0 mm 3 mps 745 mmHg 76%
06:00 +7°C° 0 mm 3 mps 745 mmHg 71%
07:00 +9°C° 0 mm 3 mps 745 mmHg 66%
08:00 +11°C° 0 mm 4 mps 745 mmHg 60%
09:00 +13°C° 0 mm 4 mps 745 mmHg 54%
10:00 +15°C° 0 mm 5 mps 744 mmHg 49%
11:00 +16°C° 0 mm 5 mps 744 mmHg 47%
12:00 +17°C° 0 mm 5 mps 744 mmHg 45%
13:00 +19°C° 0 mm 5 mps 744 mmHg 43%
14:00 +19°C° 0 mm 5 mps 743 mmHg 47%
15:00 +19°C° 0 mm 5 mps 743 mmHg 50%
16:00 +19°C° 0 mm 5 mps 743 mmHg 54%
17:00 +16°C° 0 mm 5 mps 743 mmHg 57%
18:00 +14°C° 0 mm 5 mps 743 mmHg 60%
19:00 +13°C° 0 mm 5 mps 743 mmHg 63%
20:00 +12°C° 0 mm 5 mps 743 mmHg 65%
21:00 +10°C° 0 mm 5 mps 743 mmHg 67%
22:00 +10°C° 0 mm 4 mps 743 mmHg 69%
23:00 +10°C° 0 mm 4 mps 742 mmHg 71%

10 May, Monday

Time Temperature Precipitation Wind Pressure Humidity
00:00 +8°C° 0 mm 4 mps 742 mmHg 73%
01:00 +8°C° 0 mm 4 mps 742 mmHg 75%
02:00 +7°C° 0 mm 4 mps 742 mmHg 75%
03:00 +7°C° 0 mm 4 mps 742 mmHg 74%
04:00 +7°C° 0 mm 4 mps 742 mmHg 74%
05:00 +9°C° 0 mm 5 mps 742 mmHg 70%
06:00 +11°C° 0 mm 6 mps 742 mmHg 66%
07:00 +14°C° 0 mm 6 mps 741 mmHg 62%
08:00 +15°C° 0 mm 7 mps 741 mmHg 59%
09:00 +17°C° 0 mm 7 mps 741 mmHg 55%
10:00 +20°C° 0 mm 7 mps 741 mmHg 52%
11:00 +21°C° 0 mm 7 mps 741 mmHg 51%
12:00 +22°C° 0 mm 7 mps 741 mmHg 51%
13:00 +23°C° 0 mm 7 mps 741 mmHg 50%
14:00 +22°C° 0 mm 7 mps 741 mmHg 53%
15:00 +22°C° 0 mm 7 mps 741 mmHg 56%
16:00 +21°C° 0 mm 6 mps 741 mmHg 59%
17:00 +20°C° 0 mm 6 mps 741 mmHg 62%
18:00 +19°C° 0 mm 5 mps 741 mmHg 66%
19:00 +16°C° 0 mm 5 mps 741 mmHg 70%
20:00 +15°C° 0 mm 4 mps 741 mmHg 74%
21:00 +14°C° 0 mm 4 mps 741 mmHg 79%
22:00 +13°C° 0 mm 4 mps 741 mmHg 83%
23:00 +12°C° 0 mm 3 mps 741 mmHg 85%

11 May, Tuesday

Time Temperature Precipitation Wind Pressure Humidity
00:00 +12°C° 0 mm 3 mps 741 mmHg 88%
01:00 +11°C° 0 mm 3 mps 741 mmHg 90%
02:00 +11°C° 0 mm 4 mps 740 mmHg 89%
03:00 +11°C° 0 mm 4 mps 740 mmHg 88%
04:00 +11°C° 0 mm 4 mps 740 mmHg 87%
05:00 +13°C° 0 mm 5 mps 740 mmHg 81%
06:00 +15°C° 0 mm 5 mps 740 mmHg 75%
07:00 +17°C° 0 mm 6 mps 740 mmHg 69%
08:00 +19°C° 0 mm 6 mps 740 mmHg 64%
09:00 +21°C° 0 mm 6 mps 739 mmHg 59%
10:00 +23°C° 0 mm 6 mps 739 mmHg 54%
11:00 +24°C° 0 mm 6 mps 739 mmHg 52%
12:00 +26°C° 0 mm 6 mps 739 mmHg 50%
13:00 +26°C° 0 mm 6 mps 739 mmHg 49%
14:00 +26°C° 0 mm 6 mps 738 mmHg 52%
15:00 +24°C° 0 mm 6 mps 738 mmHg 55%
16:00 +24°C° 0 mm 6 mps 738 mmHg 58%
17:00 +22°C° 0 mm 5 mps 738 mmHg 64%
18:00 +20°C° 0 mm 5 mps 737 mmHg 70%
19:00 +17°C° 0 mm 5 mps 737 mmHg 76%
20:00 +17°C° 0 mm 4 mps 737 mmHg 80%
21:00 +15°C° 0 mm 4 mps 737 mmHg 83%
22:00 +14°C° 0 mm 4 mps 737 mmHg 87%
23:00 +14°C° 0 mm 4 mps 736 mmHg 88%

12 May, Wednesday

Time Temperature Precipitation Wind Pressure Humidity
00:00 +13°C° 0 mm 3 mps 736 mmHg 90%
01:00 +12°C° 0 mm 3 mps 736 mmHg 91%
02:00 +12°C° 0 mm 3 mps 736 mmHg 91%
03:00 +12°C° 0 mm 3 mps 736 mmHg 91%
04:00 +12°C° 0 mm 3 mps 735 mmHg 91%
05:00 +13°C° 0 mm 4 mps 735 mmHg 85%
06:00 +15°C° 0 mm 4 mps 735 mmHg 79%
07:00 +16°C° 0 mm 5 mps 735 mmHg 73%
08:00 +19°C° 0 mm 5 mps 734 mmHg 66%
09:00 +21°C° 0 mm 6 mps 734 mmHg 59%
10:00 +22°C° 0 mm 6 mps 734 mmHg 53%
11:00 +23°C° 0 mm 6 mps 734 mmHg 51%
12:00 +24°C° 0 mm 6 mps 733 mmHg 49%
13:00 +24°C° 0 mm 6 mps 733 mmHg 47%
14:00 +24°C° 0 mm 6 mps 733 mmHg 50%
15:00 +23°C° 0 mm 5 mps 732 mmHg 54%
16:00 +23°C° 0 mm 5 mps 732 mmHg 58%
17:00 +21°C° 0 mm 5 mps 731 mmHg 65%
18:00 +19°C° 0 mm 5 mps 731 mmHg 72%
19:00 +16°C° 0 mm 5 mps 730 mmHg 79%
20:00 +15°C° 0 mm 5 mps 730 mmHg 82%
21:00 +14°C° 0 mm 4 mps 730 mmHg 85%
22:00 +13°C° 0 mm 4 mps 730 mmHg 88%
23:00 +13°C° 0 mm 3 mps 730 mmHg 89%
Show more